| time (UTC) | temp F | wind direction | speed knots | gust knots | rain 1hr in | rain 24hr in | rain mn in | humidity % | barometer mb |
| 20260905200041 | 85 | 250 | 1.7 | 8.7 | 0.00 | 0.01 | 0.00 | 27 | 1023.8 |
| 20260905195549 | 85 | 290 | 6.1 | 8.7 | 0.00 | 0.01 | 0.00 | 27 | 1023.8 |
| 20260905195056 | 86 | 190 | 3.5 | 8.7 | 0.00 | 0.01 | 0.00 | 27 | 1023.8 |
| 20260905194604 | 85 | 184 | 3.5 | 7.8 | 0.00 | 0.01 | 0.00 | 28 | 1023.8 |
| 20260905194008 | 85 | 260 | 2.6 | 10.4 | 0.00 | 0.01 | 0.00 | 28 | 1023.9 |
| 20260905193603 | 85 | 215 | 2.6 | 10.4 | 0.00 | 0.01 | 0.00 | 28 | 1024.0 |
| 20260905193006 | 85 | 194 | 5.2 | 11.3 | 0.00 | 0.01 | 0.00 | 28 | 1023.9 |
| 20260905192601 | 84 | 257 | 3.5 | 10.4 | 0.00 | 0.01 | 0.00 | 29 | 1024.0 |
| 20260905192004 | 83 | 287 | 5.2 | 10.4 | 0.00 | 0.01 | 0.00 | 30 | 1024.0 |
| 20260905191602 | 84 | 265 | 2.6 | 10.4 | 0.00 | 0.01 | 0.00 | 29 | 1024.1 |
| 20260905191053 | 84 | 196 | 3.5 | 8.7 | 0.00 | 0.01 | 0.00 | 29 | 1024.1 |
| 20260905190601 | 84 | 290 | 2.6 | 9.6 | 0.00 | 0.01 | 0.00 | 29 | 1024.1 |
| 20260905190004 | 84 | 265 | 4.3 | 9.6 | 0.00 | 0.01 | 0.00 | 30 | 1024.1 |
| 20260905185511 | 83 | 220 | 2.6 | 8.7 | 0.00 | 0.01 | 0.00 | 30 | 1024.2 |
| 20260905185021 | 82 | 248 | 2.6 | 11.3 | 0.00 | 0.01 | 0.00 | 31 | 1024.3 |
| 20260905184527 | 82 | 281 | 5.2 | 11.3 | 0.00 | 0.01 | 0.00 | 31 | 1024.3 |
| 20260905184035 | 83 | 290 | 3.5 | 7.0 | 0.00 | 0.01 | 0.00 | 31 | 1024.4 |
| 20260905183543 | 83 | 254 | 2.6 | 9.6 | 0.00 | 0.01 | 0.00 | 32 | 1024.4 |
| 20260905183034 | 82 | 209 | 4.3 | 9.6 | 0.00 | 0.01 | 0.00 | 32 | 1024.5 |
| 20260905182541 | 81 | 321 | 3.5 | 7.8 | 0.00 | 0.01 | 0.00 | 33 | 1024.5 |
| 20260905182046 | 81 | 339 | 2.6 | 10.4 | 0.00 | 0.01 | 0.00 | 34 | 1024.6 |
| 20260905181554 | 81 | 285 | 6.1 | 10.4 | 0.00 | 0.01 | 0.00 | 33 | 1024.7 |
| 20260905181104 | 81 | 317 | 6.1 | 8.7 | 0.00 | 0.01 | 0.00 | 34 | 1024.8 |
| 20260905180505 | 81 | 273 | 2.6 | 10.4 | 0.00 | 0.01 | 0.00 | 34 | 1024.9 |
| 20260905180059 | 80 | 275 | 3.5 | 10.4 | 0.00 | 0.01 | 0.00 | 35 | 1024.9 |
| 20260905175502 | 80 | 306 | 3.5 | 8.7 | 0.00 | 0.01 | 0.00 | 34 | 1025.0 |
| 20260905175100 | 80 | 222 | 2.6 | 8.7 | 0.00 | 0.01 | 0.00 | 36 | 1025.0 |
| 20260905174550 | 80 | 295 | 3.5 | 7.8 | 0.00 | 0.01 | 0.00 | 35 | 1025.1 |
| 20260905174058 | 79 | 296 | 2.6 | 9.6 | 0.00 | 0.01 | 0.00 | 37 | 1025.1 |
| 20260905173552 | 79 | 331 | 4.3 | 8.7 | 0.00 | 0.01 | 0.00 | 37 | 1025.2 |
| 20260905173043 | 79 | 298 | 3.5 | 8.7 | 0.00 | 0.01 | 0.00 | 37 | 1025.3 |
| 20260905172549 | 78 | 226 | 2.6 | 10.4 | 0.00 | 0.01 | 0.00 | 38 | 1025.3 |
| 20260905172057 | 78 | 296 | 7.8 | 10.4 | 0.00 | 0.01 | 0.00 | 38 | 1025.2 |
| 20260905171608 | 79 | 269 | 4.3 | 10.4 | 0.00 | 0.01 | 0.00 | 38 | 1025.3 |
| 20260905171056 | 79 | 184 | 2.6 | 7.0 | 0.00 | 0.01 | 0.00 | 39 | 1025.4 |
| 20260905170603 | 78 | 229 | 2.6 | 9.6 | 0.00 | 0.01 | 0.00 | 39 | 1025.3 |
| 20260905170055 | 77 | 290 | 6.1 | 9.6 | 0.00 | 0.01 | 0.00 | 39 | 1025.2 |
| 20260905165546 | 77 | 274 | 2.6 | 8.7 | 0.00 | 0.01 | 0.00 | 40 | 1025.3 |
| 20260905165053 | 77 | 212 | 2.6 | 8.7 | 0.00 | 0.01 | 0.00 | 40 | 1025.3 |
| 20260905164602 | 77 | 258 | 6.1 | 8.7 | 0.00 | 0.01 | 0.00 | 39 | 1025.2 |
| 20260905164009 | 77 | 306 | 1.7 | 7.0 | 0.00 | 0.01 | 0.00 | 41 | 1025.2 |
| 20260905163559 | 77 | 258 | 2.6 | 7.0 | 0.00 | 0.01 | 0.00 | 41 | 1025.2 |
| 20260905163003 | 77 | 236 | 2.6 | 5.2 | 0.00 | 0.01 | 0.00 | 42 | 1025.3 |
| 20260905162510 | 76 | 260 | 2.6 | 6.1 | 0.00 | 0.01 | 0.00 | 41 | 1025.3 |
| 20260905162018 | 76 | 316 | 0.9 | 4.3 | 0.00 | 0.01 | 0.00 | 43 | 1025.3 |
| 20260905161525 | 75 | 265 | 1.7 | 4.3 | 0.00 | 0.01 | 0.00 | 43 | 1025.3 |
| 20260905161033 | 75 | 168 | 0.0 | 5.2 | 0.00 | 0.01 | 0.00 | 45 | 1025.2 |
| 20260905160540 | 74 | 153 | 0.0 | 3.5 | 0.00 | 0.01 | 0.00 | 45 | 1025.2 |
| 20260905160049 | 74 | 174 | 0.9 | 3.5 | 0.00 | 0.01 | 0.00 | 47 | 1025.2 |
| 20260905155538 | 73 | 205 | 1.7 | 5.2 | 0.00 | 0.01 | 0.00 | 48 | 1025.1 |
| 20260905155045 | 73 | 162 | 3.5 | 5.2 | 0.00 | 0.01 | 0.00 | 49 | 1025.1 |
| 20260905154604 | 72 | 113 | 1.7 | 5.2 | 0.00 | 0.01 | 0.00 | 50 | 1025.1 |
| 20260905154102 | 72 | 120 | 2.6 | 5.2 | 0.00 | 0.01 | 0.00 | 50 | 1025.1 |
| 20260905153555 | 72 | 161 | 1.7 | 3.5 | 0.00 | 0.01 | 0.00 | 50 | 1025.1 |
| 20260905153105 | 72 | 143 | 1.7 | 5.2 | 0.00 | 0.01 | 0.00 | 50 | 1025.1 |
| 20260905152555 | 71 | 102 | 2.6 | 6.1 | 0.00 | 0.01 | 0.00 | 50 | 1025.1 |
| 20260905152045 | 71 | 138 | 1.7 | 5.2 | 0.00 | 0.01 | 0.00 | 51 | 1025.2 |
| 20260905151553 | 71 | 121 | 2.6 | 5.2 | 0.00 | 0.01 | 0.00 | 51 | 1025.0 |
| 20260905151101 | 70 | 112 | 2.6 | 6.1 | 0.00 | 0.01 | 0.00 | 51 | 1025.0 |
| 20260905150504 | 70 | 115 | 1.7 | 5.2 | 0.00 | 0.01 | 0.00 | 52 | 1024.9 |
| 20260905150113 | 69 | 118 | 2.6 | 5.2 | 0.00 | 0.01 | 0.00 | 53 | 1025.1 |
| 20260905145503 | 69 | 85 | 3.5 | 5.2 | 0.00 | 0.01 | 0.00 | 53 | 1024.9 |
| 20260905145059 | 68 | 102 | 1.7 | 6.1 | 0.00 | 0.01 | 0.00 | 54 | 1024.9 |
| 20260905144502 | 68 | 82 | 3.5 | 6.1 | 0.00 | 0.01 | 0.00 | 54 | 1024.8 |
| 20260905144101 | 67 | 97 | 1.7 | 6.1 | 0.00 | 0.01 | 0.00 | 54 | 1024.8 |
| 20260905143550 | 67 | 109 | 2.6 | 6.1 | 0.00 | 0.01 | 0.00 | 56 | 1024.8 |
| 20260905143058 | 66 | 155 | 2.6 | 5.2 | 0.00 | 0.01 | 0.00 | 55 | 1024.8 |
| 20260905142501 | 66 | 116 | 2.6 | 5.2 | 0.00 | 0.01 | 0.00 | 56 | 1024.8 |
| 20260905142009 | 65 | 127 | 2.6 | 5.2 | 0.00 | 0.01 | 0.00 | 56 | 1024.8 |
| 20260905141607 | 65 | 118 | 2.6 | 5.2 | 0.00 | 0.01 | 0.00 | 56 | 1024.8 |
| 20260905141011 | 64 | 82 | 1.7 | 3.5 | 0.00 | 0.01 | 0.00 | 57 | 1024.9 |
| 20260905140519 | 63 | 111 | 2.6 | 5.2 | 0.00 | 0.01 | 0.00 | 57 | 1024.8 |
| 20260905135502 | 63 | 121 | 1.7 | 5.2 | 0.00 | 0.01 | 0.00 | 58 | 1024.7 |
| 20260905135012 | 62 | 123 | 2.6 | 5.2 | 0.00 | 0.01 | 0.00 | 59 | 1024.6 |
| 20260905134605 | 62 | 117 | 2.6 | 5.2 | 0.00 | 0.01 | 0.00 | 59 | 1024.5 |
| 20260905134008 | 61 | 130 | 0.9 | 5.2 | 0.00 | 0.01 | 0.00 | 61 | 1024.4 |
| 20260905133604 | 61 | 114 | 0.9 | 5.2 | 0.00 | 0.01 | 0.00 | 61 | 1024.3 |
| 20260905133007 | 60 | 113 | 2.6 | 5.2 | 0.00 | 0.01 | 0.00 | 62 | 1024.3 |
| 20260905132516 | 60 | 89 | 1.7 | 5.2 | 0.00 | 0.01 | 0.00 | 62 | 1024.2 |
| 20260905132021 | 60 | 109 | 2.6 | 5.2 | 0.00 | 0.01 | 0.00 | 63 | 1024.1 |
| 20260905131533 | 59 | 119 | 2.6 | 5.2 | 0.00 | 0.01 | 0.00 | 65 | 1024.1 |
| 20260905131037 | 59 | 113 | 2.6 | 5.2 | 0.00 | 0.01 | 0.00 | 65 | 1024.1 |
| 20260905130545 | 59 | 96 | 2.6 | 4.3 | 0.00 | 0.01 | 0.00 | 65 | 1024.0 |
| 20260905130036 | 59 | 101 | 2.6 | 5.2 | 0.00 | 0.01 | 0.00 | 65 | 1024.0 |
| 20260905125543 | 59 | 92 | 1.7 | 5.2 | 0.00 | 0.01 | 0.00 | 66 | 1023.9 |
| 20260905125051 | 59 | 101 | 1.7 | 5.2 | 0.00 | 0.01 | 0.00 | 67 | 1023.9 |
| 20260905124602 | 59 | 107 | 0.9 | 2.6 | 0.00 | 0.01 | 0.00 | 67 | 1023.9 |
| 20260905124049 | 59 | 107 | 0.9 | 2.6 | 0.00 | 0.01 | 0.00 | 67 | 1023.9 |
| 20260905123557 | 60 | 105 | 0.9 | 3.5 | 0.00 | 0.01 | 0.00 | 67 | 1023.8 |
| 20260905123051 | 60 | 109 | 1.7 | 3.5 | 0.00 | 0.01 | 0.00 | 68 | 1023.8 |
| 20260905122539 | 60 | 105 | 2.6 | 3.5 | 0.00 | 0.01 | 0.00 | 68 | 1023.7 |
| 20260905122047 | 60 | 102 | 1.7 | 2.6 | 0.00 | 0.01 | 0.00 | 67 | 1023.7 |
| 20260905121537 | 61 | 102 | 1.7 | 2.6 | 0.00 | 0.01 | 0.00 | 67 | 1023.6 |
| 20260905121047 | 61 | 102 | 1.7 | 2.6 | 0.00 | 0.01 | 0.00 | 67 | 1023.6 |
| 20260905120554 | 61 | 102 | 1.7 | 2.6 | 0.00 | 0.01 | 0.00 | 67 | 1023.6 |
| 20260905115554 | 62 | 102 | 1.7 | 2.6 | 0.00 | 0.01 | 0.00 | 65 | 1023.6 |
| 20260905115059 | 62 | 102 | 1.7 | 1.7 | 0.00 | 0.01 | 0.00 | 65 | 1023.5 |
| 20260905114502 | 62 | 64 | 0.9 | 1.7 | 0.00 | 0.01 | 0.00 | 64 | 1023.6 |
| 20260905114010 | 63 | 64 | 0.0 | 1.7 | 0.00 | 0.01 | 0.00 | 64 | 1023.6 |
| 20260905113502 | 63 | 64 | 0.0 | 1.7 | 0.00 | 0.01 | 0.00 | 64 | 1023.6 |
| 20260905113012 | 63 | 64 | 0.0 | 1.7 | 0.00 | 0.01 | 0.00 | 63 | 1023.5 |
| 20260905112504 | 63 | 64 | 0.0 | 2.6 | 0.00 | 0.01 | 0.00 | 64 | 1023.5 |
| 20260905112101 | 63 | 64 | 0.0 | 2.6 | 0.00 | 0.01 | 0.00 | 64 | 1023.5 |
| 20260905111501 | 63 | 64 | 0.9 | 3.5 | 0.00 | 0.01 | 0.00 | 64 | 1023.4 |
| 20260905111057 | 63 | 64 | 1.7 | 3.5 | 0.00 | 0.01 | 0.00 | 64 | 1023.4 |
| 20260905110543 | 63 | 75 | 0.9 | 3.5 | 0.00 | 0.01 | 0.00 | 64 | 1023.5 |
| 20260905110051 | 63 | 67 | 1.7 | 3.5 | 0.00 | 0.01 | 0.00 | 64 | 1023.3 |
| 20260905105600 | 63 | 69 | 1.7 | 3.5 | 0.00 | 0.01 | 0.00 | 64 | 1023.4 |
| 20260905105004 | 63 | 61 | 1.7 | 4.3 | 0.00 | 0.01 | 0.00 | 64 | 1023.4 |
| 20260905104559 | 63 | 63 | 1.7 | 4.3 | 0.00 | 0.01 | 0.00 | 64 | 1023.3 |
| 20260905104002 | 63 | 78 | 1.7 | 6.1 | 0.00 | 0.01 | 0.00 | 64 | 1023.3 |
| 20260905103557 | 63 | 82 | 2.6 | 6.1 | 0.00 | 0.01 | 0.00 | 64 | 1023.2 |
| 20260905103105 | 63 | 41 | 2.6 | 7.0 | 0.00 | 0.01 | 0.00 | 64 | 1023.3 |
| 20260905102558 | 63 | 79 | 3.5 | 7.0 | 0.00 | 0.01 | 0.00 | 64 | 1023.2 |
| 20260905102048 | 63 | 96 | 2.6 | 7.0 | 0.00 | 0.01 | 0.00 | 64 | 1023.2 |
| 20260905101556 | 63 | 94 | 2.6 | 5.2 | 0.00 | 0.01 | 0.00 | 64 | 1023.2 |
| 20260905101106 | 63 | 76 | 3.5 | 5.2 | 0.00 | 0.01 | 0.00 | 64 | 1023.1 |
| 20260905100506 | 64 | 79 | 2.6 | 5.2 | 0.00 | 0.01 | 0.00 | 64 | 1023.1 |
| 20260905100005 | 64 | 96 | 2.6 | 5.2 | 0.00 | 0.01 | 0.00 | 63 | 1023.1 |
| 20260905095600 | 64 | 96 | 1.7 | 6.1 | 0.00 | 0.01 | 0.00 | 63 | 1023.1 |
| 20260905095003 | 64 | 105 | 3.5 | 6.1 | 0.00 | 0.01 | 0.00 | 64 | 1023.1 |
| 20260905094601 | 63 | 109 | 3.5 | 5.2 | 0.00 | 0.01 | 0.00 | 64 | 1023.1 |
| 20260905094004 | 64 | 119 | 2.6 | 5.2 | 0.00 | 0.01 | 0.00 | 64 | 1023.0 |
| 20260905093512 | 64 | 126 | 1.7 | 3.5 | 0.00 | 0.01 | 0.00 | 63 | 1023.0 |
| 20260905093003 | 64 | 118 | 1.7 | 4.3 | 0.00 | 0.01 | 0.00 | 63 | 1022.9 |
| 20260905092509 | 64 | 94 | 2.6 | 4.3 | 0.00 | 0.01 | 0.00 | 63 | 1022.8 |
| 20260905092015 | 64 | 92 | 1.7 | 4.3 | 0.00 | 0.01 | 0.00 | 63 | 1022.8 |
| 20260905091524 | 64 | 91 | 2.6 | 5.2 | 0.00 | 0.01 | 0.00 | 63 | 1022.7 |
| 20260905091031 | 64 | 93 | 2.6 | 4.3 | 0.00 | 0.01 | 0.00 | 63 | 1022.8 |
| 20260905090539 | 65 | 82 | 1.7 | 3.5 | 0.00 | 0.01 | 0.00 | 63 | 1022.8 |
| 20260905090047 | 65 | 85 | 1.7 | 3.5 | 0.00 | 0.01 | 0.00 | 63 | 1022.8 |
| 20260905085553 | 65 | 125 | 1.7 | 3.5 | 0.00 | 0.01 | 0.00 | 63 | 1022.8 |
| 20260905085101 | 65 | 115 | 1.7 | 5.2 | 0.00 | 0.01 | 0.00 | 63 | 1022.8 |
| 20260905084503 | 65 | 96 | 2.6 | 5.2 | 0.00 | 0.01 | 0.00 | 63 | 1022.9 |
| 20260905084101 | 65 | 100 | 1.7 | 3.5 | 0.00 | 0.01 | 0.00 | 63 | 1022.9 |
| 20260905083500 | 65 | 120 | 0.9 | 3.5 | 0.00 | 0.01 | 0.00 | 63 | 1022.8 |
| 20260905083057 | 65 | 120 | 1.7 | 3.5 | 0.00 | 0.01 | 0.00 | 63 | 1022.7 |
| 20260905082604 | 65 | 111 | 1.7 | 3.5 | 0.00 | 0.01 | 0.00 | 63 | 1022.8 |
| 20260905082057 | 65 | 111 | 1.7 | 3.5 | 0.00 | 0.01 | 0.00 | 63 | 1022.7 |
| 20260905081548 | 65 | 115 | 1.7 | 3.5 | 0.00 | 0.01 | 0.00 | 63 | 1022.8 |
| 20260905081056 | 65 | 115 | 1.7 | 2.6 | 0.00 | 0.01 | 0.00 | 63 | 1022.8 |
| 20260905080547 | 66 | 109 | 1.7 | 2.6 | 0.00 | 0.01 | 0.00 | 62 | 1022.8 |
| 20260905080055 | 66 | 113 | 1.7 | 3.5 | 0.00 | 0.01 | 0.00 | 62 | 1022.7 |
| 20260905075604 | 66 | 109 | 2.6 | 3.5 | 0.00 | 0.01 | 0.00 | 62 | 1022.8 |
| 20260905075005 | 66 | 127 | 1.7 | 3.5 | 0.00 | 0.01 | 0.00 | 62 | 1022.8 |
| 20260905074601 | 66 | 126 | 1.7 | 3.5 | 0.00 | 0.01 | 0.00 | 62 | 1022.8 |
| 20260905074005 | 66 | 141 | 2.6 | 3.5 | 0.00 | 0.01 | 0.00 | 61 | 1022.8 |
| 20260905073602 | 66 | 137 | 1.7 | 2.6 | 0.00 | 0.01 | 0.00 | 61 | 1022.8 |
| 20260905073005 | 67 | 126 | 1.7 | 3.5 | 0.00 | 0.01 | 0.00 | 61 | 1022.8 |
| 20260905072606 | 67 | 123 | 2.6 | 3.5 | 0.00 | 0.01 | 0.00 | 61 | 1022.9 |
| 20260905072053 | 67 | 126 | 1.7 | 2.6 | 0.00 | 0.01 | 0.00 | 60 | 1022.8 |
| 20260905071607 | 67 | 130 | 1.7 | 2.6 | 0.00 | 0.01 | 0.00 | 60 | 1022.8 |
| 20260905071054 | 67 | 130 | 1.7 | 2.6 | 0.00 | 0.01 | 0.00 | 60 | 1022.8 |
| 20260905070545 | 67 | 130 | 0.9 | 6.1 | 0.00 | 0.01 | 0.00 | 59 | 1022.8 |
| 20260905070053 | 67 | 130 | 1.7 | 6.1 | 0.00 | 0.01 | 0.00 | 59 | 1022.9 |
| 20260905065543 | 68 | 51 | 0.0 | 1.7 | 0.00 | 0.01 | 0.00 | 57 | 1022.8 |
| 20260905065051 | 68 | 51 | 0.0 | 0.0 | 0.00 | 0.01 | 0.00 | 57 | 1022.8 |
| 20260905064600 | 68 | 51 | 0.0 | 1.7 | 0.00 | 0.01 | 0.00 | 57 | 1022.6 |
| 20260905064004 | 68 | 51 | 0.0 | 1.7 | 0.00 | 0.01 | 0.00 | 58 | 1022.6 |
| 20260905063557 | 68 | 51 | 0.0 | 1.7 | 0.00 | 0.01 | 0.00 | 58 | 1022.6 |
| 20260905063002 | 69 | 51 | 0.9 | 2.6 | 0.00 | 0.01 | 0.00 | 59 | 1022.6 |
| 20260905062557 | 69 | 49 | 0.9 | 2.6 | 0.00 | 0.01 | 0.00 | 59 | 1022.6 |
| 20260905062046 | 69 | 22 | 0.9 | 3.5 | 0.00 | 0.01 | 0.00 | 59 | 1022.6 |
| 20260905061606 | 70 | 355 | 1.7 | 5.2 | 0.00 | 0.01 | 0.00 | 58 | 1022.6 |
| 20260905061102 | 70 | 338 | 2.6 | 4.3 | 0.00 | 0.01 | 0.00 | 57 | 1022.6 |
| 20260905060504 | 70 | 333 | 1.7 | 5.2 | 0.00 | 0.01 | 0.00 | 56 | 1022.6 |
| 20260905060003 | 71 | 308 | 3.5 | 7.8 | 0.00 | 0.01 | 0.00 | 55 | 1022.7 |
| 20260905055556 | 71 | 295 | 4.3 | 7.8 | 0.00 | 0.01 | 0.01 | 54 | 1022.7 |
| 20260905055105 | 71 | 311 | 2.6 | 5.2 | 0.00 | 0.01 | 0.01 | 55 | 1022.8 |
| 20260905054558 | 71 | 299 | 2.6 | 6.1 | 0.00 | 0.01 | 0.01 | 54 | 1022.8 |
| 20260905054002 | 71 | 286 | 3.5 | 8.7 | 0.00 | 0.01 | 0.01 | 54 | 1022.9 |
| 20260905053559 | 71 | 287 | 4.3 | 8.7 | 0.00 | 0.01 | 0.01 | 54 | 1022.8 |
| 20260905053002 | 70 | 247 | 3.5 | 7.0 | 0.00 | 0.01 | 0.01 | 55 | 1022.7 |
| 20260905052509 | 70 | 277 | 2.6 | 9.6 | 0.00 | 0.01 | 0.01 | 55 | 1022.7 |
| 20260905052106 | 70 | 284 | 5.2 | 9.6 | 0.00 | 0.01 | 0.01 | 55 | 1022.8 |
| 20260905051507 | 71 | 304 | 2.6 | 7.8 | 0.00 | 0.01 | 0.01 | 55 | 1022.8 |
| 20260905051106 | 71 | 291 | 4.3 | 7.8 | 0.00 | 0.01 | 0.01 | 54 | 1022.9 |
| 20260905050508 | 71 | 250 | 2.6 | 7.8 | 0.00 | 0.01 | 0.01 | 54 | 1022.8 |
| 20260905050104 | 71 | 190 | 2.6 | 7.0 | 0.00 | 0.01 | 0.01 | 54 | 1022.6 |
| 20260905045556 | 71 | 156 | 4.3 | 9.6 | 0.00 | 0.01 | 0.01 | 54 | 1022.5 |
| 20260905045102 | 71 | 162 | 6.1 | 10.4 | 0.00 | 0.01 | 0.01 | 54 | 1022.5 |
| 20260905044509 | 71 | 153 | 7.0 | 10.4 | 0.00 | 0.01 | 0.01 | 53 | 1022.4 |
| 20260905044014 | 72 | 163 | 7.0 | 10.4 | 0.00 | 0.01 | 0.01 | 52 | 1022.5 |
| 20260905043503 | 72 | 148 | 5.2 | 10.4 | 0.00 | 0.01 | 0.01 | 51 | 1022.5 |
| 20260905043008 | 73 | 150 | 6.1 | 10.4 | 0.00 | 0.01 | 0.01 | 49 | 1022.4 |
| 20260905042605 | 73 | 153 | 5.2 | 9.6 | 0.00 | 0.01 | 0.01 | 47 | 1022.3 |
| 20260905042057 | 73 | 160 | 2.6 | 3.5 | 0.00 | 0.01 | 0.01 | 44 | 1022.1 |
| 20260905041613 | 73 | 155 | 1.7 | 2.6 | 0.00 | 0.01 | 0.01 | 44 | 1022.0 |
| 20260905041053 | 73 | 207 | 0.9 | 1.7 | 0.00 | 0.01 | 0.01 | 44 | 1022.0 |
| 20260905040603 | 73 | 207 | 0.9 | 1.7 | 0.00 | 0.01 | 0.01 | 44 | 1021.9 |
| 20260905040058 | 74 | 207 | 0.9 | 1.7 | 0.00 | 0.01 | 0.01 | 44 | 1022.1 |
| 20260905035544 | 74 | 207 | 0.0 | 1.7 | 0.00 | 0.01 | 0.01 | 44 | 1022.1 |
| 20260905035051 | 74 | 207 | 0.0 | 1.7 | 0.00 | 0.01 | 0.01 | 44 | 1022.0 |
| 20260905034603 | 74 | 207 | 0.0 | 1.7 | 0.00 | 0.01 | 0.01 | 46 | 1022.1 |
| 20260905034003 | 74 | 207 | 0.0 | 1.7 | 0.00 | 0.01 | 0.01 | 44 | 1022.0 |
| 20260905033600 | 74 | 207 | 0.9 | 1.7 | 0.00 | 0.01 | 0.01 | 44 | 1022.0 |
| 20260905033003 | 74 | 207 | 0.9 | 1.7 | 0.00 | 0.01 | 0.01 | 44 | 1022.0 |
| 20260905032601 | 74 | 207 | 0.9 | 1.7 | 0.00 | 0.01 | 0.01 | 44 | 1021.9 |
| 20260905032054 | 74 | 207 | 1.7 | 2.6 | 0.00 | 0.01 | 0.01 | 44 | 1022.0 |
| 20260905031559 | 74 | 194 | 0.9 | 2.6 | 0.00 | 0.01 | 0.01 | 45 | 1021.8 |
| 20260905031052 | 74 | 178 | 0.9 | 2.6 | 0.00 | 0.01 | 0.01 | 45 | 1021.9 |
| 20260905030600 | 74 | 202 | 0.9 | 1.7 | 0.00 | 0.01 | 0.01 | 45 | 1021.8 |
| 20260905025543 | 74 | 202 | 0.9 | 1.7 | 0.00 | 0.01 | 0.01 | 45 | 1021.7 |
| 20260905025050 | 74 | 202 | 0.9 | 1.7 | 0.00 | 0.01 | 0.01 | 45 | 1021.6 |
| 20260905024543 | 74 | 202 | 0.0 | 0.9 | 0.00 | 0.01 | 0.01 | 45 | 1021.5 |
| 20260905024051 | 74 | 202 | 0.0 | 1.7 | 0.00 | 0.01 | 0.01 | 44 | 1021.5 |
| 20260905023547 | 74 | 202 | 0.0 | 1.7 | 0.00 | 0.01 | 0.01 | 44 | 1021.3 |
| 20260905023035 | 75 | 202 | 0.0 | 1.7 | 0.00 | 0.01 | 0.01 | 44 | 1021.3 |
| 20260905022541 | 75 | 202 | 0.0 | 1.7 | 0.00 | 0.01 | 0.01 | 44 | 1021.1 |
| 20260905022049 | 75 | 202 | 0.0 | 1.7 | 0.00 | 0.01 | 0.01 | 44 | 1021.0 |
| 20260905021558 | 75 | 202 | 0.0 | 0.9 | 0.00 | 0.01 | 0.01 | 45 | 1021.0 |
| 20260905021002 | 76 | 202 | 0.0 | 0.9 | 0.00 | 0.01 | 0.01 | 45 | 1021.0 |
| 20260905020507 | 76 | 202 | 0.0 | 0.9 | 0.00 | 0.01 | 0.01 | 44 | 1020.9 |
| 20260905020109 | 76 | 202 | 0.0 | 0.9 | 0.00 | 0.01 | 0.01 | 44 | 1020.9 |
| 20260905015548 | 77 | 202 | 0.0 | 0.9 | 0.00 | 0.01 | 0.01 | 44 | 1020.9 |
| 20260905015056 | 77 | 202 | 0.9 | 0.9 | 0.00 | 0.01 | 0.01 | 43 | 1021.0 |
| 20260905014605 | 77 | 202 | 0.0 | 1.7 | 0.00 | 0.01 | 0.01 | 44 | 1020.9 |
| 20260905014007 | 77 | 202 | 0.0 | 1.7 | 0.00 | 0.01 | 0.01 | 43 | 1020.9 |
| 20260905013519 | 78 | 202 | 0.0 | 1.7 | 0.00 | 0.01 | 0.01 | 43 | 1020.9 |
| 20260905013030 | 78 | 202 | 0.0 | 1.7 | 0.00 | 0.01 | 0.01 | 43 | 1021.0 |
| 20260905012531 | 78 | 209 | 0.9 | 1.7 | 0.00 | 0.01 | 0.01 | 42 | 1021.1 |
| 20260905012039 | 78 | 208 | 0.9 | 2.6 | 0.00 | 0.01 | 0.01 | 42 | 1021.1 |
| 20260905011625 | 78 | 233 | 0.0 | 4.3 | 0.00 | 0.01 | 0.01 | 43 | 1021.1 |
| 20260905011055 | 79 | 228 | 1.7 | 4.3 | 0.01 | 0.01 | 0.01 | 42 | 1021.1 |
| 20260905010544 | 79 | 213 | 2.6 | 4.3 | 0.01 | 0.01 | 0.01 | 41 | 1021.1 |
| 20260905010053 | 79 | 206 | 0.9 | 4.3 | 0.01 | 0.01 | 0.01 | 42 | 1021.1 |
| 20260905005600 | 79 | 224 | 0.9 | 4.3 | 0.01 | 0.01 | 0.01 | 43 | 1021.1 |
| 20260905005004 | 80 | 219 | 1.7 | 7.0 | 0.01 | 0.01 | 0.01 | 42 | 1021.1 |
| 20260905004600 | 80 | 279 | 3.5 | 7.0 | 0.01 | 0.01 | 0.01 | 42 | 1021.1 |
| 20260905004002 | 80 | 188 | 3.5 | 6.1 | 0.01 | 0.01 | 0.01 | 43 | 1021.0 |
| 20260905003600 | 80 | 169 | 2.6 | 5.2 | 0.01 | 0.01 | 0.01 | 45 | 1021.0 |
| 20260905003003 | 80 | 194 | 2.6 | 7.0 | 0.01 | 0.01 | 0.01 | 46 | 1021.0 |
| 20260905002600 | 80 | 201 | 3.5 | 7.0 | 0.01 | 0.01 | 0.01 | 45 | 1021.1 |
| 20260905002051 | 80 | 66 | 3.5 | 13.0 | 0.01 | 0.01 | 0.01 | 40 | 1021.0 |
| 20260905001601 | 81 | 173 | 5.2 | 13.0 | 0.01 | 0.01 | 0.01 | 41 | 1021.0 |
| 20260905001050 | 83 | 169 | 3.5 | 5.2 | 0.00 | 0.00 | 0.00 | 37 | 1021.0 |
| 20260905000538 | 84 | 140 | 2.6 | 4.3 | 0.00 | 0.00 | 0.00 | 33 | 1021.0 |
| 20260905000046 | 84 | 190 | 1.7 | 5.2 | 0.00 | 0.00 | 0.00 | 32 | 1020.9 |
| 20260904235556 | 84 | 190 | 1.7 | 5.2 | 0.00 | 0.00 | 0.00 | 32 | 1020.7 |
| 20260904235103 | 84 | 170 | 0.9 | 4.3 | 0.00 | 0.00 | 0.00 | 32 | 1020.8 |
| 20260904234552 | 84 | 200 | 0.9 | 5.2 | 0.00 | 0.00 | 0.00 | 32 | 1020.8 |
| 20260904234101 | 84 | 109 | 1.7 | 6.1 | 0.00 | 0.00 | 0.00 | 32 | 1020.8 |
| 20260904233553 | 83 | 94 | 1.7 | 5.2 | 0.00 | 0.00 | 0.00 | 33 | 1020.9 |
| 20260904233103 | 83 | 110 | 0.9 | 5.2 | 0.00 | 0.00 | 0.00 | 33 | 1020.9 |
| 20260904232554 | 83 | 108 | 2.6 | 3.5 | 0.00 | 0.00 | 0.00 | 33 | 1020.8 |
| 20260904232101 | 83 | 34 | 0.9 | 3.5 | 0.00 | 0.00 | 0.00 | 33 | 1020.9 |
| 20260904231506 | 83 | 89 | 0.9 | 3.5 | 0.00 | 0.00 | 0.00 | 33 | 1021.0 |
| 20260904231100 | 83 | 126 | 0.9 | 5.2 | 0.00 | 0.00 | 0.00 | 33 | 1021.0 |
| 20260904230504 | 83 | 137 | 1.7 | 5.2 | 0.00 | 0.00 | 0.00 | 33 | 1021.0 |
| 20260904230059 | 83 | 152 | 2.6 | 5.2 | 0.00 | 0.00 | 0.00 | 33 | 1021.1 |
| 20260904225546 | 83 | 200 | 0.9 | 2.6 | 0.00 | 0.00 | 0.00 | 33 | 1021.1 |
| 20260904225057 | 83 | 188 | 0.0 | 4.3 | 0.00 | 0.00 | 0.00 | 33 | 1021.2 |
| 20260904224605 | 83 | 187 | 1.7 | 4.3 | 0.00 | 0.00 | 0.00 | 33 | 1021.1 |
| 20260904224007 | 83 | 100 | 1.7 | 7.0 | 0.00 | 0.00 | 0.00 | 33 | 1021.2 |
| 20260904223602 | 83 | 156 | 2.6 | 7.0 | 0.00 | 0.00 | 0.00 | 33 | 1021.1 |
| 20260904223004 | 84 | 167 | 3.5 | 7.8 | 0.00 | 0.00 | 0.00 | 32 | 1021.2 |
| 20260904222600 | 84 | 159 | 2.6 | 7.8 | 0.00 | 0.00 | 0.00 | 32 | 1021.3 |
| 20260904222002 | 84 | 173 | 2.6 | 5.2 | 0.00 | 0.00 | 0.00 | 32 | 1021.3 |
| 20260904221559 | 85 | 165 | 2.6 | 5.2 | 0.00 | 0.00 | 0.00 | 32 | 1021.4 |
| 20260904221002 | 85 | 204 | 0.9 | 3.5 | 0.00 | 0.00 | 0.00 | 31 | 1021.3 |
| 20260904220509 | 85 | 271 | 0.9 | 5.2 | 0.00 | 0.00 | 0.00 | 31 | 1021.4 |
| 20260904220108 | 85 | 240 | 0.9 | 5.2 | 0.00 | 0.00 | 0.00 | 31 | 1021.4 |
| 20260904215552 | 86 | 223 | 1.7 | 5.2 | 0.00 | 0.00 | 0.00 | 31 | 1021.4 |
| 20260904215104 | 86 | 184 | 0.9 | 5.2 | 0.00 | 0.00 | 0.00 | 31 | 1021.4 |
| 20260904214555 | 85 | 58 | 0.9 | 5.2 | 0.00 | 0.00 | 0.00 | 32 | 1021.4 |
| 20260904214101 | 84 | 111 | 0.9 | 7.8 | 0.00 | 0.00 | 0.00 | 33 | 1021.4 |
| 20260904213555 | 84 | 139 | 2.6 | 7.8 | 0.00 | 0.00 | 0.00 | 32 | 1021.5 |
| 20260904213108 | 85 | 126 | 4.3 | 7.8 | 0.00 | 0.00 | 0.00 | 33 | 1021.5 |
| 20260904212507 | 85 | 195 | 1.7 | 7.8 | 0.00 | 0.00 | 0.00 | 32 | 1021.6 |
| 20260904212101 | 85 | 134 | 5.2 | 7.8 | 0.00 | 0.00 | 0.00 | 33 | 1021.7 |
| 20260904211504 | 85 | 144 | 4.3 | 9.6 | 0.00 | 0.00 | 0.00 | 32 | 1021.7 |
| 20260904211059 | 86 | 116 | 3.5 | 9.6 | 0.00 | 0.00 | 0.00 | 31 | 1021.7 |
| 20260904210503 | 87 | 93 | 1.7 | 7.0 | 0.00 | 0.00 | 0.00 | 30 | 1021.8 |
| 20260904210101 | 88 | 101 | 3.5 | 7.8 | 0.00 | 0.00 | 0.00 | 30 | 1021.8 |
| 20260904205551 | 88 | 180 | 3.5 | 7.8 | 0.00 | 0.00 | 0.00 | 30 | 1021.9 |
| 20260904205059 | 88 | 174 | 3.5 | 7.8 | 0.00 | 0.00 | 0.00 | 30 | 1021.9 |
| 20260904204503 | 88 | 128 | 1.7 | 10.4 | 0.00 | 0.00 | 0.00 | 30 | 1022.1 |
| 20260904204010 | 88 | 169 | 2.6 | 10.4 | 0.00 | 0.00 | 0.00 | 30 | 1022.2 |
| 20260904203606 | 88 | 267 | 2.6 | 8.7 | 0.00 | 0.00 | 0.00 | 30 | 1022.2 |
| 20260904203015 | 87 | 296 | 3.5 | 7.8 | 0.00 | 0.00 | 0.00 | 30 | 1022.4 |
| 20260904202605 | 88 | 166 | 5.2 | 11.3 | 0.00 | 0.00 | 0.00 | 30 | 1022.2 |
| 20260904202006 | 88 | 190 | 5.2 | 10.4 | 0.00 | 0.00 | 0.00 | 29 | 1022.3 |
| 20260904201606 | 87 | 197 | 4.3 | 10.4 | 0.00 | 0.00 | 0.00 | 30 | 1022.3 |
| 20260904201054 | 86 | 220 | 2.6 | 7.0 | 0.00 | 0.00 | 0.00 | 32 | 1022.4 |
| 20260904200601 | 86 | 261 | 2.6 | 7.0 | 0.00 | 0.00 | 0.00 | 32 | 1022.4 |